Wind_Speed
14 15 15 15 15 16 16 17 17 18 18 18 19 18 18 19 19 19 19 19 19 19 20 20 21 21 21 21 22 23 23 23 23 23 24 25 25 26
14 15 16 16 16 16 16 17 17 18 18 19 20 20 19 19 19 20 20 20 20 20 21 21 22 23 22 23 23 24 24 25 26 26 27 27 27 26
14 14 14 14 14 15 15 16 17 18 18 19 20 20 20 20 20 20 20 20 20 21 21 22 22 23 24 24 24 25 26 26 26 27 27 27 27 27
14 14 14 15 16 16 17 17 18 18 19 19 20 20 21 21 21 21 21 21 21 21 22 22 23 23 24 24 25 26 26 27 27 27 27 28 28 28
15 15 16 16 17 17 17 18 18 19 20 21 21 21 22 22 22 22 22 23 23 23 23 23 24 25 25 26 27 27 28 28 29 29 29 28 28 29
15 15 16 17 18 19 19 19 19 20 21 22 22 23 23 23 23 23 24 24 24 24 25 25 25 26 26 27 28 29 29 30 30 30 30 29 29 29
16 17 17 18 19 20 20 20 21 21 22 23 23 23 23 24 25 25 25 25 25 26 27 27 28 28 28 29 30 31 31 31 31 31 31 30 30 30
18 18 19 20 21 21 21 21 22 23 23 24 24 23 23 25 26 26 26 26 27 28 29 29 29 30 30 30 31 31 31 32 32 32 32 32 32 32
20 21 21 21 22 22 23 23 23 24 24 25 25 25 25 26 27 27 27 28 29 29 30 30 30 30 31 31 31 32 32 32 32 32 33 32 32 32
22 22 22 23 23 24 24 25 25 26 26 26 25 25 26 27 28 29 29 30 30 30 31 31 31 31 32 32 32 32 33 33 33 33 33 33 33 33
24 24 24 24 25 25 25 26 26 27 27 27 27 28 28 29 29 30 30 31 31 31 31 32 32 33 33 33 33 33 33 34 34 34 34 34 34 34
26 26 26 27 27 27 27 28 28 29 29 29 29 29 30 31 31 32 32 32 32 32 32 33 33 33 33 34 34 35 35 35 35 35 35 35 35 35
28 28 28 29 28 28 29 29 30 30 31 31 31 31 32 32 32 33 33 34 34 34 34 34 34 34 35 35 35 35 35 35 35 35 36 35 35 35
30 30 30 30 30 30 31 31 31 32 32 32 32 32 33 33 33 34 34 34 34 35 35 35 35 35 36 36 36 36 36 36 36 36 37 37 37 36
31 31 31 32 33 33 33 33 33 33 33 33 34 34 34 34 35 36 36 35 35 36 36 36 37 37 37 37 37 37 37 37 37 37 37 37 37 37
32 32 32 32 33 33 33 33 33 34 34 34 35 35 35 36 36 37 37 37 37 38 38 38 38 38 38 38 38 38 38 38 38 38 38 37 37 37
34 34 34 34 34 35 35 35 35 36 36 37 36 36 36 37 37 37 38 38 39 39 39 39 39 39 39 39 39 39 39 39 38 38 38 37 38 38
35 35 35 36 36 36 36 37 37 38 38 38 38 38 38 39 39 39 39 39 39 39 39 39 39 39 39 39 39 39 38 38 39 39 39 38 38 38
36 36 37 38 38 38 38 38 39 39 39 39 39 39 39 40 39 39 40 40 40 40 40 40 39 39 40 40 40 39 39 39 39 39 39 38 38 38
38 38 39 39 39 39 39 39 39 40 39 39 39 39 39 39 39 40 40 40 40 40 40 40 39 39 39 40 39 39 40 40 40 39 39 38 38 39
39 39 39 39 40 40 40 40 40 40 40 39 39 39 39 40 40 40 40 40 41 41 40 40 40 40 40 39 38 38 39 39 39 39 39 39 39 39
38 39 40 40 40 40 41 41 40 39 39 39 40 40 40 40 40 40 40 40 40 40 39 39 39 40 40 40 40 40 40 40 40 40 39 39 40 39
38 38 39 40 40 40 40 39 39 39 39 39 39 40 40 40 40 40 40 40 40 40 40 40 40 40 40 41 41 41 41 41 40 40 39 39 40 40
Wind_Direction
291 289 288 286 286 282 281 283 284 285 285 283 282 282 279 276 277 278 281 283 283 280 280 279 279 279 279 282 281 281 282 284 286 286 285 285 286 286
293 291 290 285 286 285 284 285 285 284 283 283 283 281 281 279 277 278 279 281 281 280 281 282 281 279 279 282 283 282 283 285 286 286 285 285 285 286
299 294 294 289 291 289 291 291 287 286 285 286 283 281 281 282 280 280 282 283 282 282 282 281 282 281 280 282 284 283 284 285 286 286 286 285 285 286
301 296 294 293 290 289 291 290 288 287 287 287 285 281 281 283 281 282 282 282 282 283 283 282 283 284 283 283 284 284 285 286 286 286 286 286 286 286
302 297 294 295 292 291 292 290 289 289 288 286 285 283 281 280 280 281 282 282 282 283 284 284 284 284 284 283 283 284 285 286 285 285 286 286 286 285
303 300 298 297 294 293 293 292 290 291 291 289 287 286 283 281 279 280 281 282 283 283 284 284 285 286 286 285 285 285 285 285 285 286 285 284 285 285
302 301 300 299 299 296 295 294 294 293 292 291 290 289 289 285 281 282 282 283 283 284 285 284 284 286 285 285 285 285 284 285 285 285 284 284 284 285
299 300 301 301 299 298 296 294 293 293 293 292 290 289 288 287 285 284 283 283 284 285 285 286 286 286 286 285 285 285 286 286 285 285 285 285 285 285
297 297 298 300 299 298 296 294 294 294 293 293 291 289 288 287 287 286 286 286 286 286 286 287 287 287 287 286 286 286 286 286 286 286 287 286 285 286
294 295 298 299 299 299 296 293 293 294 294 293 292 292 290 288 288 287 287 287 287 287 287 287 286 287 287 286 286 286 287 286 286 286 286 285 285 286
293 295 296 296 297 297 296 295 295 295 293 292 291 291 289 289 289 289 288 287 287 288 288 288 287 287 286 286 286 286 286 287 287 286 285 285 285 286
290 293 294 294 294 295 295 295 294 294 293 293 292 291 290 289 288 288 288 288 287 288 289 289 288 287 286 286 286 286 286 287 287 286 285 285 285 285
289 290 292 292 293 295 295 294 294 294 293 292 291 291 290 289 289 289 288 287 287 287 288 289 289 288 287 287 287 287 287 287 287 286 285 285 285 285
288 288 290 292 293 294 293 294 294 293 293 292 291 290 289 289 288 288 288 287 287 287 287 288 288 288 288 287 287 287 287 287 287 286 285 284 285 284
289 289 291 292 292 292 292 293 293 293 293 293 291 290 289 288 288 288 288 288 288 288 288 288 288 287 287 287 287 287 287 286 286 285 284 283 284 284
287 289 291 292 292 292 292 293 294 294 294 294 293 292 291 290 290 289 289 289 288 288 288 288 287 286 286 286 286 286 286 286 284 284 285 284 284 284
288 289 290 291 292 292 292 292 293 293 293 292 292 291 290 290 290 290 290 289 289 289 288 287 286 286 285 286 286 285 284 284 284 283 283 284 284 283
286 286 287 288 290 291 292 292 292 293 292 292 291 290 290 290 289 289 289 289 289 288 288 288 287 286 286 286 286 286 286 285 284 284 284 284 283 283
285 285 287 287 288 290 290 291 291 292 292 291 291 290 290 290 288 288 288 288 289 288 288 288 287 287 287 286 286 286 286 286 286 285 284 283 283 283
285 286 287 287 288 289 289 290 290 291 291 291 290 290 289 289 289 289 288 288 288 289 289 288 288 287 287 287 286 286 286 286 286 285 283 283 283 284
285 285 286 288 288 288 289 289 289 290 290 290 290 289 289 289 289 289 290 289 289 289 289 288 287 286 287 288 287 287 287 287 287 286 285 285 284 284
283 284 286 287 287 287 288 288 288 289 289 289 289 289 289 289 289 288 289 290 290 290 289 288 287 287 287 287 287 286 287 287 288 287 286 286 285 284
283 284 286 286 286 287 287 288 288 288 289 289 289 289 290 290 290 289 289 289 289 289 288 288 288 288 288 288 288 287 287 287 287 286 286 285 285 284
Height
5871 5871 5870 5869 5868 5868 5867 5867 5866 5865 5864 5862 5862 5861 5860 5859 5859 5858 5857 5856 5855 5854 5853 5852 5851 5851 5850 5849 5848 5847 5846 5845 5844 5843 5842 5840 5839 5838
5868 5867 5866 5865 5864 5864 5863 5862 5861 5860 5859 5858 5857 5856 5855 5855 5854 5853 5852 5851 5850 5850 5849 5847 5846 5845 5845 5844 5843 5842 5840 5839 5838 5837 5835 5834 5833 5831
5865 5864 5863 5862 5861 5860 5859 5858 5857 5856 5855 5854 5853 5852 5851 5850 5849 5848 5847 5846 5845 5844 5843 5842 5841 5840 5839 5838 5837 5835 5834 5833 5831 5830 5828 5827 5826 5824
5862 5861 5860 5859 5858 5856 5855 5854 5853 5852 5851 5849 5848 5847 5846 5845 5844 5843 5842 5841 5840 5839 5837 5836 5835 5834 5833 5832 5830 5829 5827 5826 5824 5823 5821 5820 5819 5817
5859 5858 5856 5855 5854 5853 5851 5850 5848 5847 5846 5844 5843 5842 5840 5839 5838 5837 5836 5835 5834 5833 5831 5830 5829 5828 5826 5825 5824 5822 5820 5819 5817 5816 5814 5812 5811 5809
5856 5854 5853 5851 5850 5848 5847 5845 5844 5842 5841 5839 5838 5836 5834 5833 5832 5831 5830 5829 5828 5827 5825 5824 5822 5821 5819 5818 5816 5815 5813 5811 5809 5807 5806 5804 5803 5801
5852 5850 5849 5847 5845 5844 5842 5841 5839 5837 5835 5834 5832 5830 5828 5827 5826 5825 5824 5823 5821 5820 5819 5817 5815 5814 5812 5810 5809 5807 5805 5803 5801 5799 5797 5796 5794 5793
5848 5846 5844 5842 5840 5839 5837 5835 5833 5832 5829 5828 5826 5824 5822 5821 5819 5818 5817 5816 5815 5814 5812 5810 5808 5806 5804 5802 5800 5798 5796 5795 5793 5791 5789 5787 5786 5784
5842 5841 5839 5837 5835 5833 5831 5829 5827 5825 5823 5822 5820 5818 5816 5815 5813 5811 5810 5809 5807 5806 5804 5802 5800 5798 5795 5793 5791 5789 5788 5786 5784 5782 5780 5778 5777 5775
5836 5834 5833 5831 5829 5827 5825 5823 5821 5819 5817 5815 5813 5811 5809 5808 5806 5804 5802 5801 5799 5797 5795 5794 5791 5789 5787 5785 5782 5780 5779 5777 5775 5773 5771 5769 5767 5765
5830 5828 5827 5825 5823 5821 5819 5817 5815 5812 5810 5808 5805 5803 5802 5800 5798 5796 5794 5792 5790 5788 5786 5784 5782 5780 5778 5776 5773 5771 5769 5767 5765 5763 5761 5759 5757 5755
5823 5822 5820 5818 5816 5814 5812 5810 5808 5805 5803 5800 5798 5796 5794 5792 5790 5788 5786 5783 5781 5779 5777 5775 5773 5770 5769 5766 5764 5762 5759 5757 5755 5753 5751 5749 5747 5745
5816 5814 5812 5810 5808 5806 5804 5802 5800 5797 5795 5792 5790 5788 5785 5783 5781 5779 5776 5774 5772 5770 5768 5765 5763 5761 5759 5756 5754 5752 5749 5747 5745 5743 5741 5739 5737 5735
5808 5806 5804 5802 5800 5798 5796 5793 5791 5789 5786 5784 5781 5779 5776 5774 5771 5769 5767 5764 5762 5760 5757 5755 5753 5751 5748 5746 5744 5741 5739 5737 5734 5732 5730 5728 5726 5724
5799 5798 5796 5793 5791 5789 5786 5784 5782 5779 5777 5774 5771 5769 5766 5764 5762 5759 5756 5754 5752 5749 5747 5745 5742 5740 5737 5735 5733 5731 5728 5726 5723 5721 5719 5717 5715 5713
5790 5788 5786 5784 5782 5779 5777 5775 5772 5770 5767 5764 5761 5759 5756 5754 5751 5749 5746 5743 5741 5738 5736 5734 5731 5729 5727 5724 5722 5719 5717 5714 5712 5710 5707 5705 5703 5701
5779 5778 5776 5774 5772 5769 5767 5765 5762 5760 5757 5754 5751 5748 5745 5743 5740 5738 5735 5733 5730 5727 5725 5722 5719 5717 5715 5713 5710 5707 5705 5703 5700 5698 5696 5694 5692 5690
5769 5767 5765 5763 5761 5759 5756 5754 5751 5749 5746 5743 5740 5737 5735 5732 5729 5727 5724 5721 5719 5716 5713 5711 5708 5706 5703 5701 5698 5695 5693 5691 5688 5686 5684 5682 5680 5678
5758 5756 5754 5752 5750 5748 5745 5743 5740 5737 5734 5732 5729 5726 5723 5720 5718 5715 5712 5709 5707 5704 5701 5699 5696 5693 5691 5689 5686 5683 5681 5678 5676 5674 5672 5670 5668 5666
5747 5745 5743 5741 5738 5736 5733 5731 5728 5725 5723 5720 5717 5714 5712 5709 5706 5703 5700 5698 5695 5692 5689 5687 5684 5681 5679 5677 5674 5672 5668 5666 5663 5661 5660 5658 5656 5654
5735 5733 5731 5728 5726 5724 5721 5719 5716 5714 5711 5708 5705 5702 5700 5697 5694 5691 5688 5685 5683 5680 5677 5674 5671 5669 5667 5664 5662 5659 5656 5653 5651 5649 5647 5645 5643 5641
5723 5720 5718 5716 5714 5711 5709 5706 5704 5701 5699 5696 5693 5691 5688 5685 5682 5679 5676 5674 5671 5667 5664 5662 5659 5657 5654 5652 5649 5647 5644 5641 5638 5635 5634 5632 5630 5628
5710 5708 5706 5704 5701 5699 5696 5694 5692 5689 5686 5684 5681 5678 5675 5672 5670 5667 5664 5661 5658 5655 5652 5649 5647 5644 5641 5639 5636 5633 5631 5628 5625 5623 5621 5618 5616 5614